Hays, KS

4:16 PM CDT on March 24, 2017 (GMT -0500)
Hays Regional

Weather History for KHYS - October, 2012

Change the Weather History Date:

Saturday, October 13, 2012

  Actual Average Record
Temperature  
Mean Temperature 63 °F -  
Max Temperature 75 °F 68 °F 89 °F (2015)
Min Temperature 51 °F 41 °F 28 °F (2016)
Degree Days  
Heating Degree Days 2    
Growing Degree Days 13 (Base 50)    
Moisture  
Dew Point 55 °F    
Average Humidity 76    
Maximum Humidity 94    
Minimum Humidity 38    
Precipitation  
Precipitation 0.78 in - - ()
Sea Level Pressure  
Sea Level Pressure 29.75 in    
Wind  
Wind Speed 11 mph (SW)    
Max Wind Speed 25 mph    
Max Gust Speed 33 mph    
Visibility 9 miles    
Events Thunderstorm    
Averages and records for this station are not official NWS values.
T = Trace of Precipitation, MM = Missing Value Source: NWS Daily Summary

Daily Weather History Graph

Daily Weather History Graph

Search for Another Location

Airport or City:

Trip Planner

Search our weather history database for the weather conditions in past years. The results will help you decide how hot, cold, wet, or windy it might be!

Date:

Astronomy

Oct. 13, 2012 Rise Set
Actual Time 7:44 AM CDT 7:00 PM CDT
Civil Twilight 7:18 AM CDT 7:27 PM CDT
Nautical Twilight 6:47 AM CDT 7:58 PM CDT
Astronomical Twilight 6:16 AM CDT 8:29 PM CDT
Moon 5:37 AM CDT (10/13) 5:44 PM CDT (10/13)
Length of Visible Light 12h 09m
Length of Day
11h 15m
Waning Crescent, 5% of the Moon is Illuminated
Oct 13
Waning Crescent
Oct 15
New
Oct 21
First Quarter
Oct 29
Full
Nov 6
Last Quarter

Hourly Weather History & Observations

Time (CDT) Temp. Dew Point Humidity Pressure Visibility Wind Dir Wind Speed Gust Speed Precip Events Conditions
12:15 AM 51.8 °F 48.2 °F 88% 29.92 in 0.8 mi SSE 8.1 mph - N/A   Overcast
12:55 AM 51.8 °F 48.2 °F 88% 29.91 in 0.5 mi Calm Calm - N/A   Overcast
1:35 AM 51.8 °F 48.2 °F 88% 29.92 in 1.0 mi South 3.5 mph - 0.01 in Thunderstorm Thunderstorm
1:55 AM 51.8 °F 48.2 °F 88% 29.96 in 3.0 mi SW 3.5 mph - 0.06 in Thunderstorm Thunderstorm
2:15 AM 51.8 °F 50.0 °F 94% 29.96 in 8.0 mi West 6.9 mph - 0.15 in Thunderstorm Thunderstorm
2:35 AM 51.8 °F 50.0 °F 94% 29.93 in 10.0 mi South 6.9 mph - 0.31 in Thunderstorm Thunderstorm
2:55 AM 53.6 °F 51.8 °F 94% 29.92 in 9.0 mi SSE 11.5 mph - 0.39 in Thunderstorm Mostly Cloudy
3:15 AM 53.6 °F 51.8 °F 94% 29.86 in 8.0 mi SE 15.0 mph - 0.05 in Thunderstorm Overcast
3:35 AM 53.6 °F 51.8 °F 94% 29.83 in 10.0 mi SE 13.8 mph - 0.08 in   Mostly Cloudy
3:55 AM 55.4 °F 53.6 °F 94% 29.85 in 10.0 mi South 18.4 mph 25.3 mph 0.08 in   Mostly Cloudy
4:15 AM 57.2 °F 55.4 °F 94% 29.87 in 10.0 mi SSW 12.7 mph - 0.02 in   Overcast
4:35 AM 59.0 °F 57.2 °F 94% 29.86 in 9.0 mi South 24.2 mph 33.4 mph 0.07 in   Overcast
4:55 AM 59.0 °F 55.4 °F 88% 29.87 in 10.0 mi South 21.9 mph 27.6 mph 0.13 in   Overcast
5:15 AM 59.0 °F 55.4 °F 88% 29.84 in 9.0 mi South 25.3 mph 29.9 mph 0.07 in   Overcast
5:55 AM 59.0 °F 57.2 °F 94% 29.82 in 10.0 mi South 18.4 mph - 0.11 in   Mostly Cloudy
6:15 AM 59.0 °F 55.4 °F 88% 29.82 in 10.0 mi South 16.1 mph 19.6 mph N/A   Scattered Clouds
6:35 AM 59.0 °F 57.2 °F 94% 29.82 in 10.0 mi South 15.0 mph - N/A   Partly Cloudy
6:55 AM 59.0 °F 57.2 °F 94% 29.82 in 10.0 mi SSE 13.8 mph - N/A   Clear
7:15 AM 59.0 °F 55.4 °F 88% 29.82 in 10.0 mi SSE 10.4 mph - N/A   Clear
7:35 AM 57.2 °F 55.4 °F 94% 29.81 in 10.0 mi SSE 5.8 mph - N/A   Clear
7:55 AM 57.2 °F 55.4 °F 94% 29.80 in 10.0 mi South 5.8 mph - N/A   Clear
8:15 AM 57.2 °F 55.4 °F 94% 29.81 in 10.0 mi SSW 9.2 mph - N/A   Clear
8:55 AM 60.8 °F 57.2 °F 88% 29.80 in 10.0 mi SSW 5.8 mph - 0.01 in   Overcast
9:35 AM 60.8 °F 59.0 °F 94% 29.79 in 10.0 mi SW 5.8 mph - N/A   Overcast
9:55 AM 62.6 °F 60.8 °F 94% 29.78 in 10.0 mi SSW 10.4 mph - N/A   Overcast
10:15 AM 64.4 °F 60.8 °F 88% 29.78 in 10.0 mi SSW 12.7 mph - N/A   Overcast
10:35 AM 64.4 °F 62.6 °F 94% 29.78 in 10.0 mi SSW 10.4 mph - N/A   Overcast
10:55 AM 66.2 °F 62.6 °F 88% 29.78 in 10.0 mi SW 12.7 mph - N/A   Overcast
11:15 AM 66.2 °F 62.6 °F 88% 29.77 in 10.0 mi SW 17.3 mph - N/A   Overcast
11:35 AM 66.2 °F 62.6 °F 88% 29.76 in 10.0 mi SSW 12.7 mph - N/A   Overcast
11:55 AM 66.2 °F 62.6 °F 88% 29.75 in 10.0 mi SSW 12.7 mph - N/A   Overcast
12:15 PM 66.2 °F 62.6 °F 88% 29.74 in 10.0 mi SSW 13.8 mph - N/A   Mostly Cloudy
12:35 PM 69.8 °F 62.6 °F 78% 29.73 in 10.0 mi SSW 13.8 mph 18.4 mph N/A   Mostly Cloudy
12:55 PM 69.8 °F 62.6 °F 78% 29.72 in 10.0 mi SSW 12.7 mph - N/A   Scattered Clouds
1:15 PM 71.6 °F 62.6 °F 73% 29.71 in 10.0 mi South 12.7 mph - N/A   Scattered Clouds
1:35 PM 71.6 °F 60.8 °F 69% 29.69 in 10.0 mi South 11.5 mph - N/A   Scattered Clouds
1:55 PM 71.6 °F 62.6 °F 73% 29.69 in 10.0 mi South 10.4 mph 18.4 mph N/A   Mostly Cloudy
2:15 PM 71.6 °F 62.6 °F 73% 29.68 in 10.0 mi SW 12.7 mph - N/A   Overcast
2:35 PM 73.4 °F 62.6 °F 69% 29.67 in 10.0 mi SW 13.8 mph - N/A   Mostly Cloudy
2:55 PM 73.4 °F 62.6 °F 69% 29.66 in 10.0 mi SW 10.4 mph - N/A   Scattered Clouds
3:15 PM 75.2 °F 59.0 °F 57% 29.65 in 10.0 mi WSW 11.5 mph 18.4 mph N/A   Scattered Clouds
3:35 PM 75.2 °F 59.0 °F 57% 29.65 in 10.0 mi SW 12.7 mph 16.1 mph N/A   Scattered Clouds
3:55 PM 75.2 °F 59.0 °F 57% 29.65 in 10.0 mi West 10.4 mph - N/A   Mostly Cloudy
4:15 PM 75.2 °F 57.2 °F 53% 29.64 in 10.0 mi WSW 5.8 mph - N/A   Mostly Cloudy
4:35 PM 75.2 °F 55.4 °F 50% 29.63 in 10.0 mi WNW 11.5 mph - N/A   Partly Cloudy
4:55 PM 75.2 °F 55.4 °F 50% 29.61 in 10.0 mi West 12.7 mph - N/A   Clear
5:15 PM 75.2 °F 53.6 °F 47% 29.61 in 10.0 mi West 9.2 mph - N/A   Scattered Clouds
5:35 PM 75.2 °F 48.2 °F 38% 29.60 in 10.0 mi West 10.4 mph - N/A   Partly Cloudy
5:55 PM 73.4 °F 48.2 °F 41% 29.61 in 10.0 mi West 10.4 mph - N/A   Clear
6:15 PM 73.4 °F 46.4 °F 38% 29.61 in 10.0 mi West 6.9 mph - N/A   Clear
6:35 PM 71.6 °F 48.2 °F 43% 29.61 in 10.0 mi WSW 8.1 mph - N/A   Clear
7:35 PM 62.6 °F 44.6 °F 52% 29.61 in 10.0 mi WSW 9.2 mph - N/A   Clear
7:55 PM 60.8 °F 46.4 °F 59% 29.61 in 10.0 mi West 10.4 mph - N/A   Clear
8:35 PM 60.8 °F 42.8 °F 52% 29.64 in 10.0 mi West 13.8 mph - N/A   Clear
9:15 PM 60.8 °F 44.6 °F 55% 29.66 in 10.0 mi WNW 15.0 mph - N/A   Clear
9:35 PM 59.0 °F 44.6 °F 59% 29.66 in 10.0 mi WNW 15.0 mph - N/A   Clear
9:55 PM 59.0 °F 44.6 °F 59% 29.67 in 10.0 mi West 15.0 mph - N/A   Clear
10:15 PM 59.0 °F 44.6 °F 59% 29.66 in 10.0 mi West 12.7 mph - N/A   Clear
11:15 PM 57.2 °F 44.6 °F 63% 29.66 in 10.0 mi WNW 13.8 mph - N/A   Partly Cloudy
11:35 PM 57.2 °F 44.6 °F 63% 29.69 in 10.0 mi NNW 19.6 mph 24.2 mph N/A   Scattered Clouds